Flag Weather past 2 weeks in Xiamen, Fujian, China

Now
66 °F

Fog.


Feels Like: 66 °F
Forecast: 67 / 82 °F
Wind: No wind

Location: Xiamen Airport

Current Time: Nov 25, 2014 at 6:00:10 AM

Latest Report: Nov 25, 2014 at 5:00 AM


Visibility: 2 mi

Pressure: 29.92 "Hg

Humidity: 100%

Dew point: 66 °F

Location of XiamenLocation

Historic Weather in Xiamen — Graph

°F

Xiamen temperature yesterday

Maximum temperature yesterday: 81 °F (at 1:00 PM)
Minimum temperature yesterday: 66 °F (at 5:00 AM)
Average temperature yesterday: 72 °F

Past Weeks' High & Low Weather Summary

 TemperatureHumidityPressure
High81 °F (Nov 22, 12:00 PM)100% (Nov 12, 8:00 AM)30.24 "Hg (Nov 12, 8:00 AM)
Low59 °F (Nov 20, 4:00 AM)29% (Nov 18, 3:00 PM)29.92 "Hg (Nov 24, 3:00 PM)
Average69 °F69%30.10 "Hg
* Reported Nov 10 4:00 AM — Nov 25 4:00 AM, Xiamen, Weather by CustomWeather, © 2014

Note: Actual official high and low records may vary slightly from our data, if they occured in-between our weather recording intervals... More about our weather records

Advertising

Xiamen weather history for previous 24 hours

 ConditionsComfort  
Time TempWeatherWind HumidityBarometerVisibility
4:00 AM
Nov 25
66 °FFog.1 mph100%29.92 "Hg2 mi
3:00 AM66 °FFog.1 mph100%29.92 "Hg2 mi
2:00 AM68 °FFog.1 mph100%29.95 "Hg2 mi
1:00 AM68 °FFog.No wind100%29.95 "Hg3 mi
12:00 AM68 °FFog.1 mph100%29.95 "Hg3 mi
11:00 PM
Nov 24
68 °FFog.1 mph100%29.98 "Hg3 mi
10:00 PM70 °FFog.3 mph94%29.98 "Hg3 mi
9:00 PM70 °FClear.No wind88%29.98 "Hg4 mi
8:00 PM70 °FClear.1 mph88%29.95 "Hg4 mi
7:00 PM72 °FClear.1 mph88%29.95 "Hg5 mi
6:00 PM72 °FPassing clouds.6 mph88%29.95 "HgN/A
5:00 PM75 °FPassing clouds.8 mph74%29.92 "HgN/A
4:00 PM77 °FPassing clouds.8 mph69%29.92 "HgN/A
3:00 PM81 °FPassing clouds.8 mph58%29.92 "HgN/A
2:00 PM81 °FPassing clouds.6 mph58%29.95 "HgN/A
1:00 PM81 °FPassing clouds.6 mph58%29.95 "HgN/A
12:00 PM79 °FScattered clouds.3 mph61%30.01 "HgN/A
11:00 AM79 °FScattered clouds.3 mph61%30.04 "HgN/A
10:00 AM77 °FPartly sunny.3 mph69%30.04 "HgN/A
9:00 AM73 °FPartly sunny.3 mph78%30.04 "HgN/A
8:00 AM70 °FPassing clouds.3 mph94%30.04 "HgN/A
7:00 AM66 °FSunny.No wind100%30.04 "Hg10 mi
6:00 AM66 °FPassing clouds.1 mph94%30.01 "Hg6 mi
Weather by CustomWeather, © 2014

See weather overviewHow to use our weather pages